Regional Weather Roundup
Issued by NWS

Home | Current Version | Previous Version | Text Only | Print | Product List | Glossary Off
Versions: 1 2 3 4 5 6 7 8 9 10 11 12 13 14 15 16 17 18 19 20 21 22 23 24 25 26 27 28 29 30 31 32 33 34 35 36 37 38 39 40 41 42 43 44 45 46 47 48 49 50

000
ASUS44 KMEG 241310
RWRTN
TENNESSEE HOURLY STATE WEATHER ROUNDUP
NATIONAL WEATHER SERVICE MEMPHIS TN
700 AM CST TUE JAN 24 2017

TNZ002-004-019-021-049-052-054-088>092-241400-
WEST TENNESSEE

CITY           SKY/WX    TMP DP  RH WIND       PRES   REMARKS
MEMPHIS INTL   CLEAR     36  34  92 E6        29.91S WCI  31
NWS MEMPHIS      N/A     33 N/A N/A MISG        N/A
JACKSON        CLEAR     30  28  92 CALM      29.93R
DYERSBURG      CLEAR     30  28  93 CALM      29.92S
UNION CITY     CLEAR    N/A N/A N/A CALM      29.91S
PARIS          PTCLDY    34  30  86 CALM      29.92S
HUNTINGDON     CLEAR     32  32 100 CALM      29.92R FOG
$$

TNZ008-025-027-028-033-062-065-066-241400-
NORTH MIDDLE TENNESSEE

CITY           SKY/WX    TMP DP  RH WIND       PRES   REMARKS
NASHVILLE      CLOUDY    42  33  70 N8        29.93R
PORTLAND       CLOUDY    41  36  81 NW5       29.92R
CLARKSVILLE    CLOUDY    40  32  73 NW8       29.94R WCI  34
SMYRNA         CLOUDY    41  34  76 NW9       29.94R
GALLATIN       CLOUDY    41  34  75 VRB6G13   29.96R
CROSSVILLE     CLOUDY    35  34  96 W9        29.88R WCI  28
$$

TNZ061-075-076-078-094-096-097-241400-
SOUTH MIDDLE TENNESSEE

CITY           SKY/WX    TMP DP  RH WIND       PRES   REMARKS
TULLAHOMA      CLOUDY    37  34  87 N7        29.91R WCI  32
WINCHESTER     CLOUDY    37  34  87 NW8       29.89R WCI  31
MCMINNVILLE    CLOUDY    37  36  93 N7          N/A  WCI  32
COLUMBIA       CLOUDY    39  39 100 CALM      29.90R
SHELBYVILLE    CLOUDY    41  36  81 N5        29.93R
$$

TNZ017-018-042-046-047-241400-
NORTHEAST TENNESSEE

CITY           SKY/WX    TMP DP  RH WIND       PRES   REMARKS
TRI CITIES     LGT RAIN  42  40  92 SW15G22   29.78R FOG
ELIZABETHTON   MIX PCPN  43  41  93 W12       29.77R
$$

TNZ012-013-036-069-073-074-241400-
CENTRAL EAST TENNESSEE

CITY           SKY/WX    TMP DP  RH WIND       PRES   REMARKS
KNOXVILLE      CLOUDY    42  38  85 W7        29.86R
OAK RIDGE      CLOUDY    43  37  79 VRB3      29.88R
GATLINBURG     CLOUDY    41  37  87 W6        29.86R
MORRISTOWN     CLOUDY    41  41 100 W10       29.83R FOG
JACKSBORO      CLOUDY    41  37  87 VRB5G12   29.88R
$$

TNZ083-085-099-241400-
SOUTHEAST TENNESSEE

CITY           SKY/WX    TMP DP  RH WIND       PRES   REMARKS
CHATTANOOGA    CLOUDY    42  35  76 NW8       29.90R
$$

SKY/WX REPORTED AS FAIR MEANS FEW OR NO CLOUDS BELOW
12 THOUSAND FEET.





USA.gov is the U.S. government's official web portal to all federal, state and local government web resources and services.